2023/12/22 00:00:00,18.4,-5.1
2023/12/22 00:10:00,18.4,-5.0
2023/12/22 00:20:00,18.2,-5.1
2023/12/22 00:30:00,18.1,-5.0
2023/12/22 00:40:00,18.9,-5.0
2023/12/22 00:50:00,19.0,-5.3
2023/12/22 01:00:00,19.1,-4.9
2023/12/22 01:10:00,19.8,-5.0
2023/12/22 01:20:00,19.7,-5.0
2023/12/22 01:30:00,19.3,-5.4
2023/12/22 01:40:00,19.1,-5.4
2023/12/22 01:50:00,19.0,-5.2
2023/12/22 02:00:00,19.1,-5.0
2023/12/22 02:10:00,19.1,-4.9
2023/12/22 02:20:00,18.9,-4.8
2023/12/22 02:30:00,18.9,-4.7
2023/12/22 02:40:00,18.9,-4.8
2023/12/22 02:50:00,18.9,-5.0
2023/12/22 03:00:00,18.8,-5.4
2023/12/22 03:10:00,18.6,-5.8
2023/12/22 03:20:00,18.4,-5.8
2023/12/22 03:30:00,18.4,-5.6
2023/12/22 03:40:00,18.3,-5.2
2023/12/22 03:50:00,18.2,-4.9
2023/12/22 04:00:00,18.5,-5.2
2023/12/22 04:10:00,18.8,-5.3
2023/12/22 04:20:00,18.8,-5.0
2023/12/22 04:30:00,18.7,-4.8
2023/12/22 04:40:00,19.1,-5.2
2023/12/22 04:50:00,19.4,-4.9
2023/12/22 05:00:00,19.4,-5.4
2023/12/22 05:10:00,19.2,-5.2
2023/12/22 05:20:00,19.3,-5.1
2023/12/22 05:30:00,19.6,-5.3
2023/12/22 05:40:00,19.6,-5.2
2023/12/22 05:50:00,19.5,-5.2
2023/12/22 06:00:00,19.8,-5.2
2023/12/22 06:10:00,19.8,-5.0
2023/12/22 06:20:00,20.2,-5.0
2023/12/22 06:30:00,20.3,-5.3
2023/12/22 06:40:00,20.6,-5.5
2023/12/22 06:50:00,20.8,-5.0
2023/12/22 07:00:00,20.8,-5.0
2023/12/22 07:10:00,20.9,-5.3
2023/12/22 07:20:00,20.8,-4.9
2023/12/22 07:30:00,20.8,-5.0
2023/12/22 07:40:00,20.9,-4.8
2023/12/22 07:50:00,20.9,-4.8
2023/12/22 08:00:00,21.1,-5.0
2023/12/22 08:10:00,21.6,-4.7
2023/12/22 08:20:00,21.9,-4.5
2023/12/22 08:30:00,22.7,-4.5
2023/12/22 08:40:00,23.3,-4.3
2023/12/22 08:50:00,23.5,-4.6
2023/12/22 09:00:00,23.5,-4.2
2023/12/22 09:10:00,23.6,-3.8
2023/12/22 09:20:00,23.6,-3.6
2023/12/22 09:30:00,23.8,-4.0
2023/12/22 09:40:00,23.8,-4.6
2023/12/22 09:50:00,24.4,-4.0
2023/12/22 10:00:00,24.9,-4.1
2023/12/22 10:10:00,25.0,-3.6
2023/12/22 10:20:00,25.3,-3.8
2023/12/22 10:30:00,25.4,-3.8
2023/12/22 10:40:00,25.7,-4.0
2023/12/22 10:50:00,25.9,-3.2
2023/12/22 11:00:00,25.9,-2.9
2023/12/22 11:10:00,25.7,-3.4
2023/12/22 11:20:00,25.7,-2.3
2023/12/22 11:30:00,25.6,-3.1
2023/12/22 11:40:00,25.4,-3.0
2023/12/22 11:50:00,25.2,-1.9
2023/12/22 12:00:00,25.1,-1.7
2023/12/22 12:10:00,24.9,-2.1
2023/12/22 12:20:00,24.7,-1.3
2023/12/22 12:30:00,24.6,-3.1
2023/12/22 12:40:00,24.4,-3.4
2023/12/22 12:50:00,24.3,-2.3
2023/12/22 13:00:00,24.1,-2.5
2023/12/22 13:10:00,23.8,-2.9
2023/12/22 13:20:00,23.6,-1.9
2023/12/22 13:30:00,23.4,-2.6
2023/12/22 13:40:00,23.2,-2.2
2023/12/22 13:50:00,23.1,-2.7
2023/12/22 14:00:00,23.1,-2.7
2023/12/22 14:10:00,23.2,-2.7
2023/12/22 14:20:00,23.0,-3.2
2023/12/22 14:30:00,23.0,-2.7
2023/12/22 14:40:00,22.9,-2.8
2023/12/22 14:50:00,22.7,-2.7
2023/12/22 15:00:00,23.0,-2.8
2023/12/22 15:10:00,23.2,-2.9
2023/12/22 15:20:00,23.4,-2.9
2023/12/22 15:30:00,23.2,-3.2
2023/12/22 15:40:00,23.2,-3.3
2023/12/22 15:50:00,23.0,-3.6
2023/12/22 16:00:00,22.8,-3.6
2023/12/22 16:10:00,22.7,-3.6
2023/12/22 16:20:00,22.6,-3.8
2023/12/22 16:30:00,22.4,-3.9
2023/12/22 16:40:00,22.3,-4.2
2023/12/22 16:50:00,22.2,-4.4
2023/12/22 17:00:00,22.0,-4.3
2023/12/22 17:10:00,21.9,-4.2
2023/12/22 17:20:00,22.1,-4.3
2023/12/22 17:30:00,22.7,-4.6
2023/12/22 17:40:00,23.2,-4.5
2023/12/22 17:50:00,23.0,-4.3
2023/12/22 18:00:00,22.9,-4.5
2023/12/22 18:10:00,22.8,-4.2
2023/12/22 18:20:00,23.0,-4.2
2023/12/22 18:30:00,23.1,-4.5
2023/12/22 18:40:00,23.0,-4.6
2023/12/22 18:50:00,22.9,-4.6
2023/12/22 19:00:00,22.8,-4.6
2023/12/22 19:10:00,22.7,-5.0
2023/12/22 19:20:00,22.6,-5.6
2023/12/22 19:30:00,22.4,-5.7
2023/12/22 19:40:00,22.3,-5.7
2023/12/22 19:50:00,22.2,-6.3
2023/12/22 20:00:00,22.2,-6.4
2023/12/22 20:10:00,22.0,-7.0
2023/12/22 20:20:00,21.9,-6.0
2023/12/22 20:30:00,21.8,-6.0
2023/12/22 20:40:00,21.7,-5.7
2023/12/22 20:50:00,21.6,-5.7
2023/12/22 21:00:00,21.5,-5.9
2023/12/22 21:10:00,21.4,-6.3
2023/12/22 21:20:00,21.2,-5.5
2023/12/22 21:30:00,21.1,-5.2
2023/12/22 21:40:00,21.1,-5.0
2023/12/22 21:50:00,21.0,-4.8
2023/12/22 22:00:00,20.9,-4.8
2023/12/22 22:10:00,20.8,-5.2
2023/12/22 22:20:00,20.7,-5.0
2023/12/22 22:30:00,20.8,-5.0
2023/12/22 22:40:00,21.2,-5.2
2023/12/22 22:50:00,21.1,-5.3
2023/12/22 23:00:00,20.9,-5.1
2023/12/22 23:10:00,20.9,-4.8
2023/12/22 23:20:00,21.0,-4.5
2023/12/22 23:30:00,21.3,-4.8
2023/12/22 23:40:00,21.3,-4.6
2023/12/22 23:50:00,21.6,-4.5
